Probability
35 45 65 68 71 74 71 68 61 65 65 65 61 68 61 61 65 71 71 68 68 71 71 65 68 65 68 68 71 71 68 71 71 68 61 61 65 61 68 65 58 42 65
32 45 68 68 71 74 77 68 65 68 65 61 61 61 61 61 68 68 71 71 68 71 68 65 68 65 65 65 68 71 74 71 65 68 61 58 61 65 68 52 58 58 58
35 48 58 71 77 77 74 77 71 74 61 65 61 58 55 61 68 77 68 68 68 65 68 58 58 65 65 68 65 71 68 65 65 68 58 39 42 55 55 48 55 55 52
29 48 55 77 77 71 81 74 74 65 65 68 65 61 61 61 68 71 68 71 71 71 65 61 58 55 58 58 65 65 65 61 61 55 29 19 26 42 45 48 55 48 42
32 48 65 71 74 81 81 81 74 71 61 65 68 71 74 71 68 65 68 65 71 71 65 61 52 52 58 55 55 52 52 42 45 35 19 23 39 45 48 42 42 45 39
32 35 61 84 81 81 84 81 68 68 61 61 61 68 65 65 71 65 68 65 55 58 55 58 45 48 55 58 55 48 42 42 26 6 23 16 42 52 52 48 39 39 39
35 39 52 81 84 81 81 77 65 68 65 61 61 58 61 61 61 68 68 65 55 61 58 58 42 35 35 42 42 39 32 32 16 10 16 16 39 52 58 58 48 42 42
32 42 52 74 71 65 71 74 65 65 65 68 68 68 71 65 68 65 58 55 58 68 65 65 48 42 39 35 32 32 23 23 6 0 0 16 26 45 52 45 48 42 42
29 32 45 45 48 65 65 61 65 65 68 61 65 61 65 65 61 65 74 58 65 55 48 52 48 32 39 32 29 23 19 19 3 6 6 13 29 35 35 45 42 35 39
32 23 35 32 48 48 52 68 71 65 61 61 52 52 58 52 61 65 68 65 68 58 48 48 32 26 23 19 26 19 26 19 3 3 6 13 35 32 39 42 45 39 35
29 29 19 19 32 39 42 39 58 58 55 52 55 61 58 45 35 48 35 58 61 48 48 35 29 10 23 16 19 19 19 10 6 19 29 29 39 32 39 39 48 45 39
26 19 26 26 23 23 19 48 58 45 48 58 61 68 58 52 45 13 42 48 45 42 45 26 26 26 10 10 16 13 16 10 16 16 19 23 26 32 35 35 35 39 39
26 23 26 32 42 39 39 42 45 58 58 58 61 65 65 55 48 35 39 45 48 26 29 29 23 13 19 19 19 16 16 10 10 10 13 26 29 32 35 32 42 42 45
32 23 29 32 45 55 45 39 55 48 52 52 61 61 58 55 48 48 52 35 32 32 42 32 29 29 26 23 23 19 23 16 10 10 23 23 26 29 35 39 39 39 42
32 39 42 45 61 68 65 58 39 55 55 52 58 58 55 42 42 42 48 58 55 45 39 39 29 35 35 26 23 16 29 26 16 13 19 26 26 29 29 32 32 42 39
35 45 48 55 61 74 71 65 52 45 61 48 48 45 52 52 52 52 52 58 48 45 35 39 35 32 29 32 29 32 32 19 23 23 13 26 29 29 29 35 32 39 35
42 55 58 48 55 77 68 58 52 45 45 42 39 52 52 42 52 48 52 42 42 39 32 35 32 39 39 26 29 32 35 29 26 29 19 26 26 29 32 39 42 39 39
48 58 61 32 52 68 71 71 52 45 48 48 45 45 48 55 55 55 48 48 45 45 48 52 45 42 29 32 26 29 32 35 26 26 26 32 32 26 32 32 35 32 39
55 58 65 58 55 55 55 58 61 61 58 48 45 48 45 52 48 48 52 48 48 45 45 39 32 35 29 32 26 35 29 32 29 29 26 19 29 35 42 35 29 35 32
52 58 55 58 68 58 55 65 68 61 52 52 48 48 48 45 42 55 42 55 42 32 48 48 48 45 35 39 26 23 29 26 26 23 23 16 26 29 35 35 45 29 45
52 61 61 61 68 77 68 65 61 55 55 48 48 52 55 52 52 52 42 52 58 48 45 45 35 35 32 32 32 39 32 16 19 29 26 23 19 26 32 42 48 42 52
52 58 65 71 68 74 74 74 74 65 55 48 45 58 61 55 55 48 58 45 55 68 55 58 52 48 23 32 32 29 26 26 32 16 32 39 29 23 35 32 39 55 48
52 55 55 61 74 77 81 61 58 68 55 48 55 65 58 58 55 61 58 52 52 48 52 61 61 58 32 45 35 32 35 19 19 19 23 32 35 45 45 39 45 48 52
45 52 65 68 74 77 77 71 61 61 58 65 68 68 61 58 58 58 61 55 58 39 52 48 48 48 58 48 32 42 39 35 29 19 32 23 29 42 35 32 35 42 55
45 52 61 71 74 77 77 74 74 58 68 61 65 68 65 58 58 55 58 61 61 58 55 58 48 55 45 42 45 35 35 45 35 39 42 42 39 42 35 39 35 32 42
42 55 55 68 71 74 71 61 71 71 68 58 65 65 58 55 61 61 58 68 65 61 61 68 58 48 55 48 48 39 35 32 35 39 39 42 35 32 35 35 32 39 35
Height
5885 5883 5882 5881 5882 5882 5881 5880 5879 5880 5882 5884 5886 5887 5888 5888 5889 5889 5890 5890 5891 5891 5891 5892 5892 5892 5892 5892 5892 5893 5892 5893 5893 5893 5893 5893 5893 5894 5894 5894 5893 5893 5893
5886 5885 5884 5883 5883 5882 5880 5878 5878 5879 5881 5883 5885 5887 5888 5888 5889 5890 5890 5890 5891 5891 5892 5892 5892 5892 5892 5892 5892 5893 5893 5893 5893 5893 5893 5893 5893 5893 5893 5893 5893 5893 5893
5887 5886 5885 5885 5884 5883 5881 5879 5878 5878 5880 5883 5885 5887 5888 5889 5890 5890 5890 5891 5891 5891 5892 5892 5892 5892 5892 5892 5892 5893 5893 5893 5893 5893 5893 5893 5893 5893 5893 5893 5893 5893 5893
5888 5887 5886 5886 5885 5884 5882 5880 5879 5880 5882 5884 5886 5887 5888 5889 5890 5890 5891 5891 5891 5891 5892 5892 5892 5892 5892 5892 5892 5892 5893 5893 5893 5893 5893 5893 5893 5893 5893 5893 5893 5893 5893
5888 5888 5888 5887 5887 5886 5885 5883 5882 5882 5884 5886 5887 5888 5888 5889 5890 5890 5891 5891 5891 5892 5892 5892 5892 5892 5891 5892 5892 5892 5892 5893 5893 5893 5893 5893 5893 5893 5893 5893 5892 5892 5892
5890 5889 5889 5889 5888 5888 5887 5886 5885 5885 5886 5887 5888 5888 5889 5889 5890 5890 5891 5891 5891 5892 5892 5892 5892 5891 5891 5891 5891 5892 5892 5892 5893 5893 5893 5892 5893 5893 5893 5892 5892 5892 5892
5891 5890 5890 5890 5890 5889 5889 5888 5888 5888 5888 5888 5888 5889 5889 5889 5890 5890 5891 5891 5891 5892 5892 5891 5891 5891 5890 5891 5891 5891 5892 5892 5892 5892 5892 5892 5892 5893 5892 5892 5892 5891 5891
5892 5892 5891 5891 5891 5891 5890 5890 5890 5890 5890 5889 5889 5889 5889 5889 5890 5890 5890 5891 5891 5892 5891 5891 5890 5890 5889 5889 5890 5891 5891 5891 5892 5892 5892 5892 5892 5892 5892 5891 5891 5891 5891
5893 5893 5893 5892 5892 5891 5892 5892 5892 5891 5891 5890 5890 5890 5889 5889 5889 5890 5890 5891 5891 5891 5891 5891 5890 5889 5888 5889 5890 5890 5891 5891 5891 5891 5891 5891 5891 5891 5891 5891 5890 5890 5890
5894 5894 5894 5893 5893 5893 5893 5893 5893 5892 5892 5891 5890 5890 5889 5889 5889 5890 5890 5891 5891 5891 5891 5890 5889 5888 5888 5889 5890 5890 5890 5890 5890 5890 5890 5890 5890 5890 5890 5890 5889 5889 5889
5896 5895 5895 5895 5894 5894 5894 5894 5894 5893 5892 5892 5891 5891 5890 5889 5889 5890 5890 5890 5890 5891 5891 5890 5890 5889 5888 5889 5889 5889 5889 5889 5889 5889 5889 5889 5889 5889 5889 5888 5888 5888 5888
5897 5897 5896 5896 5896 5895 5895 5895 5895 5894 5894 5893 5892 5892 5891 5890 5890 5890 5890 5890 5890 5890 5890 5890 5890 5889 5888 5888 5888 5888 5888 5888 5888 5888 5888 5888 5888 5888 5887 5887 5887 5887 5886
5898 5898 5897 5897 5897 5896 5896 5896 5895 5895 5894 5894 5893 5893 5892 5892 5891 5891 5891 5891 5890 5890 5890 5890 5889 5889 5888 5887 5887 5888 5887 5887 5887 5887 5887 5887 5887 5886 5886 5886 5885 5885 5885
5899 5899 5898 5898 5898 5897 5897 5897 5896 5896 5895 5895 5894 5894 5893 5893 5892 5892 5891 5891 5891 5890 5890 5889 5889 5888 5888 5887 5887 5887 5887 5886 5886 5886 5886 5886 5885 5885 5884 5884 5883 5883 5883
5900 5900 5899 5899 5898 5898 5898 5897 5897 5896 5896 5896 5895 5894 5894 5893 5893 5892 5892 5891 5891 5890 5889 5889 5888 5888 5888 5887 5887 5887 5886 5886 5885 5885 5884 5884 5884 5884 5883 5882 5881 5881 5881
5901 5901 5900 5900 5899 5899 5899 5898 5898 5897 5897 5896 5896 5896 5895 5894 5894 5893 5892 5892 5891 5890 5889 5889 5888 5888 5888 5887 5887 5886 5886 5886 5885 5884 5884 5883 5883 5882 5881 5880 5880 5879 5879
5903 5902 5902 5901 5900 5900 5900 5899 5899 5898 5898 5897 5896 5896 5895 5895 5894 5893 5893 5892 5891 5890 5889 5889 5888 5888 5887 5887 5887 5886 5886 5885 5885 5884 5883 5882 5881 5880 5879 5879 5878 5877 5877
5904 5904 5903 5902 5901 5901 5900 5900 5899 5899 5898 5897 5897 5896 5895 5895 5894 5893 5892 5892 5891 5890 5889 5888 5888 5887 5887 5886 5886 5885 5885 5884 5883 5883 5882 5881 5880 5879 5878 5877 5876 5875 5874
5906 5905 5904 5903 5902 5901 5900 5900 5900 5899 5899 5898 5897 5896 5896 5895 5894 5893 5893 5891 5890 5890 5889 5888 5887 5886 5886 5885 5885 5884 5883 5882 5882 5881 5880 5880 5878 5877 5876 5875 5875 5874 5873
5907 5906 5905 5904 5903 5901 5901 5900 5900 5899 5899 5898 5897 5896 5896 5895 5894 5893 5892 5891 5890 5889 5888 5887 5886 5885 5884 5884 5883 5882 5882 5881 5880 5879 5879 5878 5877 5875 5874 5873 5873 5872 5871
5907 5906 5905 5904 5903 5902 5901 5900 5900 5899 5899 5898 5897 5896 5895 5894 5893 5892 5891 5890 5890 5889 5887 5886 5885 5884 5883 5882 5882 5881 5880 5879 5878 5877 5876 5876 5875 5873 5872 5871 5871 5870 5869
5908 5907 5906 5905 5904 5903 5902 5901 5900 5899 5898 5897 5897 5896 5894 5893 5893 5892 5891 5890 5888 5887 5887 5886 5884 5883 5882 5881 5880 5879 5878 5878 5876 5875 5874 5873 5872 5871 5870 5869 5868 5867 5866
5908 5907 5906 5905 5904 5903 5902 5901 5900 5899 5898 5897 5896 5895 5893 5892 5892 5891 5890 5889 5887 5886 5886 5884 5883 5882 5881 5879 5878 5877 5876 5876 5874 5873 5872 5870 5870 5869 5868 5867 5865 5864 5863
5908 5907 5905 5904 5904 5903 5902 5901 5900 5898 5897 5896 5895 5894 5893 5892 5891 5890 5889 5888 5887 5885 5884 5883 5881 5880 5879 5877 5876 5874 5874 5872 5871 5870 5869 5867 5866 5866 5865 5864 5863 5861 5860
5907 5906 5905 5904 5903 5902 5901 5900 5899 5898 5897 5896 5895 5893 5892 5891 5890 5889 5888 5886 5885 5884 5882 5881 5879 5878 5876 5875 5873 5872 5871 5869 5868 5867 5865 5864 5863 5863 5862 5860 5859 5858 5857
5907 5906 5904 5903 5902 5901 5900 5899 5898 5897 5896 5895 5894 5893 5891 5890 5888 5887 5886 5885 5883 5882 5880 5879 5877 5875 5874 5872 5871 5870 5868 5867 5865 5864 5863 5861 5860 5859 5858 5856 5855 5854 5853
Wind_Speed
6 6 6 6 6 6 6 6 6 7 8 9 8 8 8 8 7 6 6 6 5 5 4 3 3 2 3 3 4 4 4 4 4 2 2 2 2 1 1 1 1 1 1
6 6 6 6 6 6 6 6 6 7 8 8 8 7 8 7 6 6 6 5 5 4 3 3 2 2 2 3 3 3 2 2 2 1 2 2 2 1 1 1 1 2 2
6 6 6 6 6 7 7 6 6 7 8 8 7 7 7 7 6 6 5 5 4 4 4 2 2 2 2 3 3 2 2 2 1 1 1 1 1 1 1 1 2 2 2
6 6 6 6 6 6 7 7 7 7 8 8 7 7 7 6 6 6 5 4 4 3 3 2 2 2 3 3 3 2 2 1 1 1 2 1 1 2 2 2 2 3 3
7 6 6 6 6 6 7 8 8 8 7 7 6 6 6 6 5 5 5 4 3 2 2 1 1 2 3 3 3 3 2 2 2 2 2 2 2 3 3 3 3 3 3
7 7 7 7 7 7 7 8 8 8 7 6 6 5 5 5 5 5 4 3 2 1 0 1 1 1 2 2 2 2 2 3 3 2 2 3 3 3 3 4 4 4 4
7 7 7 7 7 7 7 8 7 7 6 6 5 4 5 4 4 4 3 2 2 1 1 1 2 2 3 3 2 2 2 2 3 3 3 3 4 4 4 4 4 4 5
8 8 7 7 7 7 7 7 7 7 6 5 4 3 3 3 3 4 2 2 2 2 2 2 2 3 4 3 2 2 2 2 3 4 3 3 4 4 5 5 5 5 5
8 7 8 7 6 7 7 7 7 6 5 4 4 4 3 3 3 2 2 2 2 2 2 2 3 3 2 1 1 2 2 3 4 5 5 4 5 5 5 5 6 6 5
7 7 7 7 6 6 6 6 6 5 4 3 4 4 3 2 2 2 1 1 2 2 3 3 4 2 3 2 3 4 4 4 5 5 6 6 6 6 6 6 6 6 6
7 7 7 7 7 7 6 5 5 4 3 3 3 3 4 2 1 1 1 2 2 2 2 3 3 3 3 4 4 5 5 5 6 6 7 7 7 7 7 6 6 7 7
7 7 7 7 7 7 6 5 4 3 3 4 3 3 4 3 2 1 0 2 2 3 3 3 4 4 4 4 4 4 5 5 5 5 6 6 7 7 7 7 7 7 8
7 6 6 6 6 6 6 5 4 4 4 4 3 3 3 3 2 1 1 2 2 3 3 4 4 4 4 4 4 4 4 4 4 5 5 4 6 7 7 7 8 8 8
6 6 6 6 5 6 6 5 5 4 4 5 4 3 3 3 2 2 1 1 2 3 3 4 4 4 4 4 4 4 4 4 4 5 5 5 5 6 8 8 8 9 9
6 6 6 5 5 5 5 5 5 4 4 4 4 4 4 4 3 2 2 2 3 4 4 3 2 2 3 4 4 3 3 4 4 4 5 6 6 7 8 8 9 9 10
7 6 6 5 4 4 4 5 5 5 4 4 3 4 4 3 4 4 4 4 4 4 5 4 3 3 4 4 3 3 4 4 4 4 5 6 7 8 8 8 9 10 10
7 6 5 5 5 4 4 4 4 4 3 3 3 3 3 3 3 4 5 5 5 5 5 4 4 4 4 4 4 4 5 5 5 6 6 7 7 8 8 9 9 10 10
6 6 5 5 4 4 4 3 2 2 2 2 2 3 3 3 4 4 5 5 5 5 5 4 4 4 4 4 4 5 6 6 6 7 7 7 7 8 9 9 8 9 9
7 6 5 5 4 4 4 3 2 2 2 2 2 2 2 3 4 4 5 5 5 5 5 4 5 5 5 5 5 6 7 7 7 7 8 8 8 8 9 9 9 9 9
6 5 5 5 4 4 3 2 2 2 2 2 3 3 3 3 3 4 5 6 6 6 5 5 6 5 5 5 6 7 7 7 8 9 9 9 9 9 9 10 10 10 11
5 4 4 4 4 4 3 3 3 3 3 3 4 5 5 4 4 4 6 6 6 6 6 6 7 6 6 6 7 7 8 8 9 9 10 10 10 10 10 11 11 11 11
5 4 3 4 4 3 3 3 3 4 4 4 5 6 6 6 6 6 6 6 6 6 6 6 7 7 7 8 8 8 8 9 9 10 11 11 11 11 12 12 12 12 11
5 4 3 3 4 4 4 4 4 4 5 5 6 6 6 6 6 6 6 6 7 7 6 7 8 9 9 10 10 10 10 10 11 11 12 12 12 12 13 13 13 13 13
5 4 4 3 4 4 4 4 5 5 5 5 5 5 5 5 6 6 7 7 8 8 8 8 9 10 11 11 11 11 11 11 11 12 13 13 13 13 14 14 14 15 14
6 6 5 5 5 5 5 6 6 5 5 5 6 6 6 6 6 7 8 9 9 9 10 10 11 11 12 12 12 12 12 12 12 12 13 14 14 14 14 15 15 15 15
7 7 6 6 5 5 6 6 6 7 6 6 7 7 7 7 8 9 9 10 10 11 11 11 12 12 13 13 12 12 12 12 13 13 13 14 14 15 14 15 15 15 15
Wind_Direction
78 78 88 101 117 124 123 128 142 151 153 153 152 151 147 143 141 140 139 138 140 133 132 129 114 106 110 115 122 130 141 141 140 140 134 131 136 153 174 208 215 230 231
83 87 92 101 111 119 117 128 139 151 156 156 155 155 155 149 140 143 143 138 135 141 148 135 122 110 122 119 132 138 150 164 164 146 125 138 151 162 208 241 258 281 257
88 90 97 105 109 114 114 122 136 149 153 152 153 155 153 150 140 136 140 138 138 151 156 146 145 137 141 151 158 162 172 177 207 189 169 161 175 229 249 248 248 256 256
95 95 99 108 107 109 110 118 128 142 147 150 152 153 154 150 141 140 148 143 145 151 159 152 158 188 183 178 186 202 192 177 195 198 185 212 233 260 267 265 255 251 258
100 98 103 106 108 108 111 118 123 132 138 140 146 153 158 155 155 153 152 151 151 140 137 136 175 214 226 225 221 217 205 204 223 217 207 243 253 268 268 266 268 267 269
101 99 103 107 110 112 111 115 124 130 132 132 133 144 150 148 161 163 159 160 149 149 206 212 247 259 256 258 254 242 227 234 235 235 240 252 259 275 272 268 268 264 263
98 96 100 109 110 112 109 116 118 120 120 127 131 138 149 156 170 180 171 173 182 213 258 274 275 294 284 265 267 268 241 254 250 250 254 254 259 268 270 266 271 266 264
97 96 99 107 111 115 112 112 114 113 115 121 119 123 148 160 177 178 171 184 212 243 291 310 310 318 296 257 250 280 273 275 260 255 254 246 254 268 275 269 266 268 266
94 98 100 105 110 113 117 116 114 110 107 108 115 117 120 122 153 159 177 194 228 259 290 303 309 308 312 259 319 305 288 273 257 257 256 253 260 264 269 267 264 265 265
93 100 105 108 108 116 117 115 111 105 106 101 111 112 110 123 141 152 172 227 256 278 293 308 314 277 266 270 298 303 287 275 263 260 261 261 265 269 271 264 265 264 266
93 98 105 108 105 105 112 112 106 99 97 91 99 101 94 107 131 167 191 250 275 289 291 299 301 264 258 286 292 296 286 274 270 267 265 261 266 271 274 265 266 271 272
90 96 104 106 103 101 104 104 104 104 102 92 91 96 86 88 87 77 258 264 275 289 280 286 288 273 286 286 287 292 292 283 282 274 266 270 271 272 273 268 271 275 275
86 92 94 104 105 104 106 101 94 98 102 99 92 86 83 79 71 36 338 302 299 293 286 286 288 272 279 287 293 295 293 291 281 269 271 279 281 279 276 271 274 274 270
84 84 94 102 105 101 103 101 90 87 93 93 89 77 64 57 53 36 10 326 329 328 308 287 288 279 288 287 291 294 293 296 279 266 270 283 292 285 279 277 277 275 275
82 86 86 94 104 102 101 100 94 88 85 86 82 71 56 47 42 24 5 346 334 332 333 338 320 306 314 301 300 307 303 312 309 294 286 285 288 292 288 285 282 276 277
78 80 77 77 85 98 94 92 85 81 80 75 72 70 57 45 35 23 9 4 356 352 355 347 339 320 318 312 309 305 303 302 306 303 300 293 290 293 293 290 284 279 276
73 75 75 76 79 84 82 82 84 78 74 69 60 43 37 36 27 15 10 3 356 348 352 352 343 323 315 311 305 303 302 297 297 298 300 303 297 294 294 291 288 283 277
71 70 69 77 75 77 78 80 79 66 58 55 44 18 20 19 14 14 5 355 349 346 342 334 333 319 305 308 307 306 303 297 294 296 298 299 299 298 294 294 291 288 283
59 60 61 64 64 65 67 74 63 40 27 17 4 352 4 0 359 358 350 345 340 338 333 319 321 324 316 307 304 303 302 299 294 293 297 298 302 300 296 295 293 292 290
50 54 54 53 53 53 53 58 42 25 14 359 344 341 345 340 340 343 342 338 335 335 332 324 319 319 315 307 303 300 298 300 295 292 292 296 298 298 297 295 298 297 294
35 39 47 44 40 38 40 33 23 9 360 352 340 337 336 332 330 329 333 335 334 329 322 321 322 317 315 307 302 300 301 300 296 291 286 288 292 296 297 295 295 301 299
12 16 35 27 15 11 12 5 359 353 344 338 334 334 330 325 326 322 323 326 321 317 319 317 315 315 314 313 308 301 298 295 293 288 286 288 291 292 294 295 296 299 300
350 354 2 352 352 354 352 351 350 342 335 330 331 331 328 327 329 328 326 327 324 321 316 312 310 310 311 309 306 302 299 294 289 287 284 286 287 289 291 292 294 297 297
329 327 336 331 333 336 339 341 339 335 330 326 326 325 329 334 331 326 324 321 320 315 312 310 311 310 308 306 304 300 299 295 292 289 286 285 286 289 290 291 291 292 295
320 321 322 320 318 320 318 320 323 322 321 327 331 327 324 326 324 323 320 319 319 318 315 311 312 310 310 307 303 302 301 298 297 294 290 289 288 289 290 291 291 291 291
313 316 316 315 310 308 311 312 311 310 311 316 318 322 321 316 314 315 317 317 316 317 315 313 312 309 306 305 303 304 304 301 299 299 298 294 292 291 292 292 293 292 292